Regional Weather Roundup
Issued by NWS Burlington, VT

Home | Current Version | Previous Version | Text Only | Print | Product List | Glossary On
Versions: 1 2 3 4 5 6 7 8 9 10 11 12 13 14 15 16 17 18 19 20 21 22 23 24 25 26 27 28 29 30 31 32 33 34 35 36 37 38 39 40 41 42 43 44 45 46 47 48 49 50
000
ASUS41 KBTV 010630
RWRBTV
VERMONT REGIONAL WEATHER ROUNDUP
NATIONAL WEATHER SERVICE BURLINGTON VT
200 AM EDT MON MAY 01 2017

NOTE: "FAIR" INDICATES FEW OR NO CLOUDS BELOW 12,000 FEET WITH NO
SIGNIFICANT WEATHER AND/OR OBSTRUCTIONS TO VISIBILITY.

* THESE REPORTS ARE NOT UNDER NWS QUALITY CONTROL AND/OR DO NOT
  REPORT WEATHER SUCH AS PRECIPITATION AND FOG.

VTZ001>019-010700-
_____VERMONT_____


CITY           SKY/WX    TMP DP  RH WIND       PRES   REMARKS
BURLINGTON     CLOUDY    46  38  73 S6        29.97F
6HR MIN TEMP:  42; 6HR MAX TEMP:  46; 6HR PCP: TRACE;

MONTPELIER     CLOUDY    45  41  86 S13G21    30.06F
6HR MIN TEMP:  43; 6HR MAX TEMP:  46;

MORRISVILLE    LGT RAIN  45  39  79 S5        30.01F
6HR MIN TEMP:  40; 6HR MAX TEMP:  45; 6HR PCP: TRACE;

ST. JOHNSBURY*   N/A     46  38  73 MISG      30.04F
6HR MIN TEMP:  42; 6HR MAX TEMP:  46;

LYNDONVILLE*   DRIZZLE   41  37  83 E5        30.04F
6HR MIN TEMP:  40; 6HR MAX TEMP:  42;

MIDDLEBURY*    CLOUDY    51  42  71 S8        29.98F
6HR MIN TEMP:  42; 6HR MAX TEMP:  51;

RUTLAND*       CLOUDY    50  42  74 SE18      30.03F
6HR MIN TEMP:  44; 6HR MAX TEMP:  50;

SPRINGFIELD    CLOUDY    46  41  82 S3        30.10F
6HR MIN TEMP:  45; 6HR MAX TEMP:  46;

HIGHGATE*      DRIZZLE   42  40  94 N3        30.00R
6HR MIN TEMP:  41; 6HR MAX TEMP:  43;

NEWPORT*       LGT RAIN  42  39  89 SE3       30.02S
6HR MIN TEMP:  38; 6HR MAX TEMP:  42;

BENNINGTON     CLOUDY    51  41  68 S9G20     30.06F
6HR MIN TEMP:  51; 6HR MAX TEMP:  55;

SUTTON*          N/A     39 N/A N/A MISG        N/A
ISLAND POND*     N/A     41 N/A N/A NW1         N/A
GALLUP MILLS*    N/A     39 N/A N/A MISG        N/A
UNION VILLAGE*   N/A     46 N/A N/A MISG        N/A
MT. MANSFIELD*   N/A     43 N/A N/A SW30G41     N/A

_____LAKE CHAMPLAIN_____


CITY           SKY/WX    TMP DP  RH WIND       PRES   REMARKS
COLCHESTER RF*   N/A     45  39  81 S23         N/A

$$

NYZ007-026>031-035-052-083-087-010700-
_____NORTHERN NEW YORK_____


CITY           SKY/WX    TMP DP  RH WIND       PRES   REMARKS
PLATTSBURGH    PTCLDY    43  37  79 S10       29.95F
6HR MIN TEMP:  41; 6HR MAX TEMP:  43; 6HR PCP: TRACE;

SARANAC LAKE   CLOUDY    40  36  86 SE5       29.89F
6HR MIN TEMP:  36; 6HR MAX TEMP:  39; 6HR PCP: TRACE;

MASSENA        HVY RAIN  42  41  96 E9        29.96F FOG
6HR MIN TEMP:  40; 6HR MAX TEMP:  42; 6HR PCP:  0.32;

OGDENSBURG*    LGT RAIN  41  40  95 NE6       29.92F
6HR MIN TEMP:  40; 6HR MAX TEMP:  42;

POTSDAM*       RAIN      39  39 100 NE3       29.93S
STARK FALLS*     N/A     50 N/A N/A NW7         N/A
WATERTOWN      LGT RAIN  44  44 100 NE5       29.92R
6HR MIN TEMP:  41; 6HR MAX TEMP:  45; 6HR PCP:  0.23;

FT DRUM        LGT RAIN  50  48  93 SE5       29.88F
6HR MIN TEMP:  41; 6HR MAX TEMP:  53; 6HR PCP:  0.18;

ALBANY         CLOUDY    52  39  61 S13G26    30.07F
6HR MIN TEMP:  45; 6HR MAX TEMP:  53;

GLENS FALLS    CLOUDY    46  40  79 CALM      30.03F
6HR MIN TEMP:  44; 6HR MAX TEMP:  46;


$$
NHZ002-005-011-010700-
_____NEW HAMPSHIRE_____


CITY           SKY/WX    TMP DP  RH WIND       PRES   REMARKS
LEBANON        CLOUDY    48  41  76 VRB3      30.09F
6HR MIN TEMP:  46; 6HR MAX TEMP:  48;

KEENE          CLOUDY    47  40  76 S5        30.14F
6HR MIN TEMP:  47; 6HR MAX TEMP:  52;

MT WASHINGTON  FOG       36  36 100 SW33        N/A  VSB 0   WCI  22
6HR MIN TEMP:  32; 6HR MAX TEMP:  37; 6HR PCP:  0.01;

PLYMOUTH       CLOUDY    44  39  85 E5        30.13F
6HR MIN TEMP:  44; 6HR MAX TEMP:  48;

WHITEFIELD     CLOUDY    48  35  60 CALM      30.04F
6HR MIN TEMP:  44; 6HR MAX TEMP:  48; 6HR PCP: TRACE;


$$

_____REGIONAL QUEBEC LOCATIONS_____


CITY           SKY/WX    TMP DP  RH WIND       PRES   REMARKS
MONTREAL       LGT RAIN  43  41  93 NE18      29.99F
QUEBEC CITY    LGT RAIN  41  37  87 NE10      30.16S
SHERBROOKE     RAIN      41  41 100 N6        30.09R

_____REGIONAL ONTARIO LOCATIONS_____


CITY           SKY/WX    TMP DP  RH WIND       PRES   REMARKS
OTTAWA         LGT RAIN  39  37  93 NE14G20   29.94F WCI  31

______KEY______
VSB  - VISIBILITY IN MILES
WCI  - WIND CHILL INDEX
HX   - HEAT INDEX
$$
NNNN




USA.gov is the U.S. government's official web portal to all federal, state and local government web resources and services.